Tracking 23731 objects as of 27-Sep-2021
HD Live streaming from Space Station
objects crossing your sky now

STARLINK-2303

Track STARLINK-2303 now!
10-day predictions
STARLINK-2303 is classified as:


NORAD ID: 47981
Int'l Code: 2021-024E
Perigee: 553.2 km
Apogee: 555.6 km
Inclination: 53.1 °
Period: 95.6 minutes
Semi major axis: 6925 km
RCS: Unknown
Launch date: March 24, 2021
Source: United States (US)
Launch site: AIR FORCE EASTERN TEST RANGE (AFETR)
aabbcc
Your satellite tracking list
Your tracking list is empty




NASA's NSSDC Master Catalog

Two Line Element Set (TLE):
1 47981U 21024E   21269.73005263 -.00000324  00000-0 -28571-5 0  9993
2 47981  53.0576  71.3515 0001763 101.2432 258.8755 15.06390120 29647
Source of the keplerian elements: AFSPC